Weather History for Kansas City International, MO

Change the Weather History Date:

Sunday, April 7, 2013

  Actual Average Record
Temperature  
Mean Temperature 60 °F 52 °F  
Max Temperature 73 °F 63 °F 84 °F (1893)
Min Temperature 47 °F 41 °F 18 °F (2007)
Degree Days  
Heating Degree Days 5 14  
Month to date heating degree days 109 101  
Since 1 July heating degree days 4677 4792  
Cooling Degree Days 0 1  
Month to date cooling degree days 0 1  
Year to date cooling degree days 0 4  
Growing Degree Days 10 (Base 50)    
Moisture  
Dew Point 45 °F    
Average Humidity 52    
Maximum Humidity 68    
Minimum Humidity 35    
Precipitation  
Precipitation 0.85 in 0.10 in 0.98 in (1993)
Month to date precipitation 0.85 0.69  
Year to date precipitation 5.69 5.59  
Snow  
Snow 0.00 in 0.10 in 2.20 in (1916)
Month to date snowfall 0.0 0.3  
Since 1 July snowfall 31.3 18.5  
Snow Depth 0.00 in    
Sea Level Pressure  
Sea Level Pressure 29.77 in    
Wind  
Wind Speed 11 mph (SSE)    
Max Wind Speed 24 mph    
Max Gust Speed 31 mph    
Visibility 10 miles    
Events Rain , Thunderstorm    
T = Trace of Precipitation, MM = Missing Value Source: NWS Daily Summary

Daily Weather History Graph

Daily Weather History Graph

Search for Another Location

Airport:

Trip Planner

Search our weather history database for the weather conditions in past years. The results will help you decide how hot, cold, wet, or windy it might be!

Date:

Astronomy

Apr. 07, 2013 Rise Set
Actual Time 6:53 AM CDT 7:48 PM CDT
Civil Twilight 6:26 AM CDT 8:16 PM CDT
Nautical Twilight 5:53 AM CDT 8:48 PM CDT
Astronomical Twilight 5:20 AM CDT 9:22 PM CDT
Moon 5:10 AM CDT (4/7) 5:22 PM CDT (4/7)
Length of Visible Light 13h 50m
Length of Day
12h 55m
Waning Crescent, 8% of the Moon is Illuminated
Apr 7
Waning Crescent
Apr 10
New
Apr 18
First Quarter
Apr 25
Full
May 2
Last Quarter

Hourly Weather History & Observations

Time (CDT) Temp. Dew Point Humidity Pressure Visibility Wind Dir Wind Speed Gust Speed Precip Events Conditions
12:53 AM 57.0 °F 39.0 °F 51% 29.81 in 10.0 mi SSW 4.6 mph - N/A   Scattered Clouds
1:53 AM 55.9 °F 39.0 °F 53% 29.81 in 10.0 mi SSW 5.8 mph - N/A   Partly Cloudy
2:53 AM 55.0 °F 39.0 °F 55% 29.81 in 10.0 mi SW 5.8 mph - N/A   Partly Cloudy
3:53 AM 52.0 °F 39.0 °F 61% 29.81 in 10.0 mi SW 4.6 mph - N/A   Clear
4:53 AM 48.9 °F 37.9 °F 66% 29.82 in 10.0 mi South 3.5 mph - N/A   Clear
5:53 AM 50.0 °F 39.0 °F 66% 29.82 in 10.0 mi SSE 6.9 mph - N/A   Scattered Clouds
6:53 AM 50.0 °F 39.0 °F 66% 29.83 in 10.0 mi South 6.9 mph - N/A   Mostly Cloudy
7:53 AM 51.1 °F 41.0 °F 68% 29.86 in 10.0 mi SSE 5.8 mph - N/A   Overcast
8:53 AM 62.1 °F 44.1 °F 52% 29.85 in 10.0 mi South 9.2 mph - N/A   Mostly Cloudy
9:53 AM 64.9 °F 42.1 °F 43% 29.85 in 10.0 mi South 8.1 mph - N/A   Overcast
10:53 AM 66.9 °F 43.0 °F 42% 29.86 in 10.0 mi South 8.1 mph - N/A   Overcast
11:53 AM 71.1 °F 43.0 °F 36% 29.84 in 10.0 mi SSE 10.4 mph - N/A   Overcast
12:53 PM 72.0 °F 42.1 °F 34% 29.83 in 10.0 mi South 17.3 mph 21.9 mph N/A   Overcast
1:53 PM 72.0 °F 42.1 °F 34% 29.80 in 10.0 mi South 13.8 mph 23.0 mph N/A   Overcast
2:53 PM 72.0 °F 42.1 °F 34% 29.78 in 10.0 mi SSE 17.3 mph - N/A   Overcast
3:53 PM 70.0 °F 44.1 °F 39% 29.75 in 10.0 mi SSE 12.7 mph - N/A   Overcast
4:53 PM 72.0 °F 45.0 °F 38% 29.73 in 10.0 mi SSE 18.4 mph 23.0 mph N/A   Mostly Cloudy
5:53 PM 71.1 °F 46.9 °F 42% 29.70 in 10.0 mi SSE 16.1 mph 24.2 mph N/A   Mostly Cloudy
6:53 PM 69.1 °F 50.0 °F 51% 29.67 in 10.0 mi SE 19.6 mph 26.5 mph N/A   Overcast
7:38 PM 66.2 °F 51.8 °F 60% 29.67 in 10.0 mi SSE 18.4 mph - 0.00 in Rain , Thunderstorm Light Thunderstorms and Rain
7:53 PM 63.0 °F 51.1 °F 65% 29.65 in 8.0 mi SSE 19.6 mph 27.6 mph 0.00 in Rain , Thunderstorm Light Thunderstorms and Rain
8:53 PM 59.0 °F 52.0 °F 78% 29.67 in 10.0 mi SSE 18.4 mph - 0.08 in Thunderstorm Thunderstorm
9:33 PM 57.2 °F 53.6 °F 88% 29.73 in 2.5 mi SE 9.2 mph - 0.28 in Rain , Thunderstorm Heavy Thunderstorms and Rain
9:41 PM 57.2 °F 53.6 °F 88% 29.72 in 5.0 mi SE 8.1 mph - 0.40 in Rain , Thunderstorm Thunderstorms and Rain
9:53 PM 57.0 °F 53.1 °F 87% 29.73 in 8.0 mi SSE 9.2 mph - 0.43 in Rain , Thunderstorm Thunderstorms and Rain
10:22 PM 57.2 °F 53.6 °F 88% 29.72 in 10.0 mi SE 12.7 mph - 0.06 in Rain Light Rain
10:53 PM 57.0 °F 53.1 °F 87% 29.68 in 10.0 mi ESE 16.1 mph - 0.06 in   Overcast
11:20 PM 57.2 °F 53.6 °F 88% 29.68 in 10.0 mi SE 13.8 mph - 0.00 in Rain , Thunderstorm Light Thunderstorms and Rain
11:39 PM 57.2 °F 53.6 °F 88% 29.68 in 10.0 mi SSE 12.7 mph - 0.05 in Rain Light Rain
11:53 PM 57.0 °F 54.0 °F 89% 29.68 in 10.0 mi South 8.1 mph - 0.05 in Rain , Thunderstorm Light Thunderstorms and Rain